Date,TemperatureHighF,TemperatureAvgF,TemperatureLowF,DewpointHighF,DewpointAvgF,DewpointLowF,HumidityHigh,HumidityAvg,HumidityLow,PressureMaxIn,PressureMinIn,WindSpeedMaxMPH,WindSpeedAvgMPH,GustSpeedMaxMPH,PrecipitationSumIn
2013-1-1,77.3,60.6,44.3,63.6,53.9,42.3,95,80,58,30.19,30.02,9,2,14,0.00
2013-1-2,81.6,64.2,49.2,70.1,58.7,46.9,95,83,61,30.06,29.95,6,1,12,0.00
2013-1-3,73.0,64.5,57.5,68.8,62.2,56.1,96,92,80,30.15,30.00,6,2,8,0.03
2013-1-4,59.6,57.5,54.5,58.2,56.3,53.4,96,96,95,30.25,30.11,6,3,13,0.03
2013-1-5,74.9,63.4,53.2,64.9,59.0,51.8,96,86,70,30.27,30.15,7,3,10,0.00
2013-1-6,79.6,68.5,62.1,71.6,65.2,60.4,96,90,73,30.19,30.03,7,1,9,0.05
2013-1-7,68.3,62.9,56.6,65.6,59.2,54.0,95,88,74,30.19,30.09,9,4,10,0.00
2013-1-8,81.1,69.9,58.4,71.4,65.5,57.0,96,86,67,30.20,30.10,7,2,9,0.00
2013-1-9,82.2,73.8,67.6,73.1,69.5,65.5,95,87,68,30.27,30.16,8,2,11,0.00
2013-1-10,82.8,72.2,59.5,71.5,66.0,55.9,96,82,55,30.28,30.18,9,2,13,0.01
2013-1-11,79.9,68.3,55.6,71.5,63.9,53.2,95,86,70,30.24,30.12,10,2,12,0.00
2013-1-12,81.4,68.3,53.7,70.3,62.2,52.0,96,82,59,30.17,30.06,9,3,12,0.01
2013-1-13,81.1,68.5,52.6,69.7,62.8,50.9,96,83,62,30.14,30.04,7,2,10,0.01
2013-1-14,80.6,67.8,53.4,69.0,62.1,51.7,96,83,61,30.17,30.08,9,2,13,0.01
2013-1-15,80.2,69.2,54.5,70.3,63.3,52.8,96,83,60,30.12,30.03,7,2,10,0.00
2013-1-16,81.8,66.0,52.9,68.3,59.0,51.2,96,80,52,30.08,29.98,6,1,9,0.00
2013-1-17,77.6,61.0,51.7,71.0,56.6,45.4,95,86,75,30.09,29.96,10,3,18,0.01
2013-1-18,64.9,52.3,38.6,59.8,47.4,33.9,94,84,71,30.28,30.10,9,3,15,0.02
2013-1-19,74.1,63.7,53.5,63.0,57.9,50.5,92,82,67,30.25,30.11,10,4,15,0.01
2013-1-20,73.7,63.5,55.9,64.6,59.4,52.7,95,87,72,30.15,30.02,7,2,9,0.00
2013-1-21,72.9,64.1,57.8,65.5,59.4,54.1,92,85,74,30.07,29.97,5,1,6,0.00
2013-1-22,66.8,55.1,38.2,55.3,44.3,34.1,90,70,37,30.26,30.04,9,2,15,0.00
2013-1-23,70.2,50.1,36.2,40.7,35.6,30.9,93,64,27,30.36,30.25,7,2,10,0.00
2013-1-24,75.9,52.6,33.1,51.6,42.4,30.2,94,72,41,30.33,30.20,5,1,9,0.00
2013-1-25,75.8,54.8,39.4,60.0,45.6,36.9,95,74,45,30.31,30.15,6,1,9,0.01
2013-1-26,77.5,55.7,37.1,58.9,47.1,34.2,94,75,47,30.27,30.13,5,1,7,0.00
2013-1-27,77.5,60.1,42.3,63.0,52.5,39.6,95,78,51,30.30,30.20,6,2,12,0.01
2013-1-28,77.1,67.4,57.7,67.6,63.1,56.2,96,87,70,30.31,30.20,9,2,13,0.02
2013-1-29,82.5,70.9,64.3,71.3,66.6,63.0,96,87,63,30.23,30.07,10,4,16,0.00
2013-1-30,84.7,72.6,63.9,69.0,65.6,62.4,95,80,55,30.09,29.88,17,7,21,0.01
2013-1-31,69.7,56.3,35.0,66.7,45.6,30.1,95,71,31,30.22,29.88,9,2,15,0.06
2013-2-1,69.9,47.3,28.4,40.9,32.1,25.6,94,63,23,30.33,30.20,7,1,11,0.00
2013-2-2,74.0,49.8,30.3,47.3,37.7,27.4,93,68,35,30.29,30.12,6,1,12,0.00
2013-2-3,72.6,50.5,33.8,53.0,40.2,30.4,92,71,43,30.18,30.04,6,1,13,0.00
2013-2-4,71.9,48.6,30.7,50.5,36.9,28.1,93,69,31,30.13,30.01,6,1,11,0.01
2013-2-5,78.0,55.0,31.6,55.4,44.7,28.7,94,71,44,30.08,29.97,6,1,10,0.00
2013-2-6,78.2,65.3,49.1,63.6,57.1,46.0,93,76,55,30.09,30.00,5,1,6,0.00
2013-2-7,81.7,70.6,60.4,67.0,62.8,58.1,93,78,54,30.05,29.83,13,5,17,0.00
2013-2-8,84.0,69.7,53.7,64.7,59.7,50.8,94,74,41,30.06,29.84,6,2,11,0.00
2013-2-9,75.7,60.0,46.4,58.5,52.4,44.8,96,78,49,30.18,30.05,7,2,11,0.01
2013-2-10,77.6,65.0,53.6,62.5,57.5,51.6,94,78,58,30.25,30.13,11,3,16,0.00
2013-2-11,82.7,67.7,52.0,66.0,59.8,49.8,95,78,52,30.19,30.04,11,3,15,0.00
2013-2-12,86.1,70.3,52.9,70.8,62.7,50.6,95,79,51,30.08,29.91,8,2,13,0.00
2013-2-13,87.0,73.0,61.5,73.1,67.4,57.9,95,84,57,29.95,29.80,11,4,18,0.08
2013-2-14,63.7,61.3,59.0,61.6,59.4,57.6,96,93,90,30.01,29.90,4,1,6,0.31
2013-2-15,69.7,57.7,50.7,63.3,55.3,48.4,97,92,74,30.06,29.92,5,1,6,0.05
2013-2-16,69.8,54.2,42.8,54.2,45.3,31.3,96,74,48,30.10,29.89,8,2,17,0.00
2013-2-17,54.9,41.5,27.7,30.6,23.6,18.1,86,53,25,30.33,30.11,8,2,12,0.00
2013-2-18,68.5,46.8,24.3,48.0,36.8,21.6,93,71,46,30.34,30.19,8,2,13,0.00
2013-2-19,80.3,59.7,40.5,59.8,49.6,37.4,94,72,44,30.20,30.04,11,2,17,0.00
2013-2-20,79.1,64.0,49.8,64.9,57.3,46.4,95,80,60,30.11,29.98,5,1,7,0.00
2013-2-21,82.5,67.4,52.9,67.5,59.4,49.9,94,77,52,30.09,29.96,7,2,11,0.00
2013-2-22,85.4,72.0,55.2,71.2,64.4,53.2,95,79,52,30.06,29.95,12,3,15,0.00
2013-2-23,88.1,74.9,64.8,72.3,67.8,61.8,94,80,52,29.99,29.85,12,4,14,0.01
2013-2-24,80.0,71.4,65.8,73.1,68.1,63.5,95,90,76,29.94,29.85,5,1,9,0.01
2013-2-25,86.5,72.5,63.7,73.0,65.2,59.2,96,80,52,29.90,29.74,9,2,11,0.00
2013-2-26,76.8,70.2,62.9,74.0,67.4,60.0,94,91,85,29.85,29.71,14,4,19,0.09
2013-2-27,78.2,63.9,52.3,61.8,56.6,47.9,96,79,51,29.95,29.84,5,1,7,0.00
2013-2-28,76.1,58.6,41.5,57.3,48.8,39.0,95,73,42,29.98,29.86,7,2,14,0.01
2013-3-1,66.1,53.1,41.8,47.7,42.1,38.2,93,69,38,29.99,29.89,6,2,13,0.00
2013-3-2,60.0,48.8,34.4,42.8,36.3,29.3,85,64,40,30.03,29.94,8,2,16,0.00
2013-3-3,56.4,42.5,29.1,36.4,32.1,25.2,88,68,46,30.15,29.98,7,2,16,0.00
2013-3-4,68.2,45.2,25.1,37.0,29.8,22.3,92,61,25,30.22,30.09,6,1,11,0.00
2013-3-5,78.4,56.7,33.3,57.0,44.6,30.1,93,68,37,30.16,30.00,9,2,13,0.00
2013-3-6,63.4,54.9,39.3,61.6,48.3,31.7,94,79,50,30.12,29.92,9,3,13,0.00
2013-3-7,68.0,47.4,33.2,42.6,35.9,28.6,86,67,36,30.20,30.10,6,2,10,0.00
2013-3-8,77.8,53.4,30.5,49.8,38.2,27.9,95,63,23,30.21,30.09,6,1,11,0.00
2013-3-9,74.8,57.1,35.0,53.7,46.2,32.6,94,70,42,30.21,30.11,6,2,11,0.00
2013-3-10,78.2,64.0,49.6,58.8,54.1,46.5,94,73,48,30.16,30.04,10,3,14,0.00
2013-3-11,78.0,64.9,48.9,62.3,56.7,46.4,95,76,56,30.09,29.88,12,3,17,0.00
2013-3-12,70.4,65.1,53.6,67.8,61.7,51.3,95,89,76,30.01,29.85,10,5,14,0.33
2013-3-13,76.5,59.4,45.0,51.2,43.8,36.3,95,63,25,30.15,30.00,8,3,13,0.01
2013-3-14,69.4,52.8,38.7,42.2,36.3,31.0,89,59,27,30.25,30.13,9,2,15,0.00
2013-3-15,73.7,49.7,29.8,48.1,36.1,27.2,93,65,31,30.27,30.12,7,1,11,0.00
2013-3-16,80.0,57.9,34.3,52.7,43.3,31.1,92,63,29,30.17,30.02,7,1,11,0.00
2013-3-17,78.2,59.7,41.3,59.5,50.6,38.3,94,74,48,30.13,29.98,9,2,15,0.00
2013-3-18,78.2,68.6,57.5,67.1,62.5,54.9,93,81,67,30.03,29.85,15,3,15,0.00
2013-3-19,84.4,70.7,59.0,69.3,63.1,57.1,96,79,53,29.98,29.85,7,1,15,0.00
2013-3-20,75.2,67.0,58.2,68.7,62.5,55.4,95,86,68,29.94,29.77,5,2,10,0.10
2013-3-21,73.8,58.5,39.8,56.4,42.9,31.4,95,63,24,29.96,29.84,7,1,11,0.01
2013-3-22,77.9,57.4,34.4,64.8,49.2,30.6,94,77,45,30.00,29.86,10,2,14,0.20
2013-3-23,85.7,71.7,60.9,75.6,66.8,59.5,96,85,60,29.96,29.75,10,3,13,0.02
2013-3-24,81.7,73.6,67.0,74.4,70.1,63.3,95,89,68,29.82,29.60,11,4,16,0.18
2013-3-25,74.1,63.4,47.4,66.9,47.9,30.7,94,63,24,30.02,29.71,8,3,15,0.01
2013-3-26,61.4,50.9,40.5,42.5,33.5,28.7,79,54,30,30.22,30.01,8,3,19,0.00
2013-3-27,66.4,47.3,28.8,39.4,32.9,25.7,91,62,30,30.30,30.17,7,1,12,0.00
2013-3-28,72.6,50.7,28.4,45.5,34.1,25.5,92,60,24,30.28,30.16,8,2,11,0.00
2013-3-29,75.4,55.5,33.4,51.5,38.2,30.2,92,59,26,30.31,30.17,8,2,12,0.00
2013-3-30,79.6,58.8,38.5,56.7,46.2,34.8,92,66,38,30.24,30.09,9,2,14,0.00
2013-3-31,82.7,67.4,51.8,60.0,54.4,47.3,88,66,38,30.16,29.97,11,3,16,0.00
2013-4-1,85.2,70.8,58.0,68.6,61.8,54.4,94,75,53,30.02,29.91,7,2,16,0.00
2013-4-2,84.5,68.4,53.1,66.6,58.1,51.1,95,73,38,30.07,29.98,6,1,9,0.01
2013-4-3,83.9,70.5,56.6,69.2,63.5,52.2,94,80,54,30.06,29.91,11,3,13,0.10
2013-4-4,71.0,68.5,64.9,68.9,66.6,62.8,95,93,89,30.01,29.84,17,5,22,0.40
2013-4-5,75.5,67.4,59.6,70.0,62.9,56.4,95,86,61,29.96,29.78,8,2,11,0.15
2013-4-6,77.1,63.7,51.3,61.5,56.6,49.3,94,79,55,30.10,29.96,9,4,13,0.01
2013-4-7,80.3,68.2,55.7,65.0,59.5,53.4,95,76,52,30.13,30.03,6,2,9,0.00
2013-4-8,82.9,70.5,55.2,65.8,60.5,52.9,95,73,48,30.11,30.02,9,2,12,0.00
2013-4-9,83.0,69.8,54.1,69.8,61.9,51.8,95,78,55,30.14,30.05,9,2,12,0.00
2013-4-10,87.0,71.2,51.2,70.8,63.5,49.0,95,78,50,30.10,29.94,7,2,11,0.00
2013-4-11,89.0,78.0,71.3,74.2,71.2,68.5,95,81,57,29.98,29.80,12,6,15,0.08
2013-4-12,82.2,75.8,71.1,75.3,71.9,68.0,95,88,74,29.88,29.77,14,5,20,0.01
2013-4-13,85.8,75.7,66.2,73.0,68.6,62.6,95,80,60,29.96,29.85,6,1,9,0.00
2013-4-14,89.1,76.1,65.9,75.9,69.3,60.6,90,80,61,29.97,29.80,10,3,14,0.03
2013-4-15,91.0,75.4,62.2,71.5,65.7,58.4,90,74,50,30.05,29.90,5,1,8,0.00
2013-4-16,87.2,76.1,66.5,74.0,69.0,63.6,95,80,61,30.13,30.01,7,3,12,0.00
2013-4-17,85.0,72.2,58.0,70.7,64.5,56.0,95,78,53,30.12,30.00,9,3,12,0.00
2013-4-18,89.8,74.9,59.7,72.2,67.1,57.7,95,78,51,30.04,29.92,7,2,11,0.01
2013-4-19,90.2,79.7,70.2,75.2,71.1,66.8,95,77,54,29.99,29.88,14,4,18,0.00
2013-4-20,74.9,68.5,60.9,71.7,64.3,57.3,94,87,75,30.13,29.93,8,3,13,0.01
2013-4-21,79.8,67.7,60.4,72.4,64.9,56.9,96,91,77,30.12,29.99,7,3,10,0.57
2013-4-22,78.2,70.1,65.4,72.2,67.4,63.3,96,91,76,30.06,29.95,10,3,12,0.09
2013-4-23,80.8,70.7,62.7,67.9,63.5,59.7,96,80,55,30.09,29.99,10,4,15,0.00
2013-4-24,82.2,62.5,50.0,67.3,57.4,47.8,95,85,56,30.12,30.05,6,1,11,0.00
2013-4-30,88.1,76.1,67.4,73.3,69.2,65.6,95,81,53,29.99,29.87,11,1,12,0.79
2013-5-1,73.9,70.1,67.8,72.4,68.7,66.6,96,95,91,29.99,29.91,4,1,9,0.25
2013-5-2,76.1,68.7,63.8,73.0,67.2,62.6,97,95,90,29.95,29.79,4,1,6,0.24
2013-5-3,81.4,70.4,61.9,74.2,67.8,60.7,97,92,73,29.81,29.67,5,1,8,0.24
2013-5-4,82.2,72.7,66.7,74.6,68.2,62.7,96,86,66,29.78,29.63,5,1,13,0.01
2013-5-5,80.5,68.4,55.7,65.6,56.7,49.2,94,70,39,29.92,29.74,5,1,10,0.00
2013-5-6,79.5,66.2,53.7,63.7,56.7,48.2,93,73,48,29.99,29.87,5,1,11,0.00
2013-5-7,80.7,64.2,47.4,63.3,55.0,44.0,94,74,53,30.03,29.94,5,1,11,0.00
2013-5-8,84.5,67.8,51.2,66.4,58.4,48.7,94,74,49,30.11,30.00,4,1,10,0.00
2013-5-9,87.5,70.3,49.9,68.6,59.7,47.3,94,72,46,30.13,30.04,4,0,9,0.00
2013-5-10,92.7,75.7,57.0,74.4,65.6,54.6,95,74,42,30.11,29.96,8,2,13,0.00
2013-5-11,88.4,75.8,62.7,75.8,69.3,60.3,94,81,63,30.03,29.94,8,2,13,0.00
2013-5-12,90.3,75.4,65.3,76.4,68.4,61.7,95,80,57,30.02,29.91,7,1,13,0.00
2013-5-13,85.9,71.6,58.9,68.1,60.5,52.1,94,71,42,30.11,29.97,7,1,13,0.00
2013-5-14,85.0,67.3,45.1,61.7,53.0,42.1,93,65,32,30.18,30.09,7,1,13,0.00
2013-5-15,84.8,69.3,49.1,64.5,57.2,46.0,93,68,42,30.19,30.06,7,2,11,0.00
2013-5-16,86.6,72.7,54.4,67.4,61.5,51.8,94,70,44,30.11,29.98,5,2,11,0.00
2013-5-17,89.6,74.8,59.0,70.1,64.0,56.0,93,72,44,30.07,30.00,5,1,10,0.00
2013-5-18,92.7,77.9,61.2,74.9,67.3,58.9,94,73,41,30.08,29.96,7,2,11,0.00
2013-5-19,94.7,79.5,70.6,74.7,71.5,68.6,95,78,45,30.06,29.94,8,2,10,0.00
2013-5-20,90.6,76.3,67.0,75.0,69.5,64.6,94,81,54,30.06,29.94,6,1,7,0.22
2013-5-21,84.8,68.4,-90.0,75.4,65.8,-99.9,97,91,70,30.01,29.92,14,1,16,1.76
2013-5-22,83.1,72.8,65.0,79.9,70.9,64.1,97,94,81,29.97,29.86,8,1,18,0.01
2013-5-23,89.4,75.6,65.7,77.7,70.8,64.5,96,86,60,29.98,29.89,7,0,11,0.48
2013-5-24,93.4,78.5,63.4,79.6,68.8,61.6,95,75,39,30.06,29.95,3,0,9,0.01
2013-5-25,86.4,76.3,67.2,71.6,66.3,60.8,94,73,53,30.16,30.04,8,3,12,0.00
2013-5-26,84.3,71.3,53.3,66.0,60.5,50.7,94,71,42,30.19,30.10,6,2,12,0.00
2013-5-27,85.7,72.1,55.6,68.1,62.7,52.7,94,74,51,30.16,30.06,7,2,12,0.00
2013-5-28,86.4,75.0,63.1,76.2,69.8,60.1,95,84,67,30.12,30.02,8,3,12,0.31
2013-5-29,82.8,75.1,69.7,76.0,72.0,68.2,96,90,74,30.11,30.03,10,2,13,0.11
2013-5-30,83.7,76.4,71.3,76.0,72.4,69.6,96,88,73,30.08,30.00,8,2,18,0.30
2013-5-31,85.0,77.0,71.0,76.1,71.7,68.6,93,84,71,30.07,29.99,8,3,13,0.08
2013-6-1,88.5,78.5,71.5,78.0,73.8,70.0,95,86,68,30.04,29.91,8,2,12,0.02
2013-6-2,91.4,79.6,72.7,78.8,75.0,71.2,96,87,61,29.99,29.85,5,1,8,0.06
2013-6-3,86.2,78.0,70.6,78.6,74.2,69.1,96,88,75,29.98,29.87,7,2,10,0.01
2013-6-4,85.1,77.1,71.2,76.6,72.8,69.0,95,87,70,30.00,29.92,12,2,15,0.91
2013-6-5,80.2,74.5,71.5,77.1,72.7,70.0,96,94,84,29.99,29.88,6,1,8,0.20
2013-6-6,78.6,74.8,72.8,77.1,73.3,71.2,96,95,91,29.89,29.64,16,6,20,1.36
2013-6-7,85.7,77.6,71.7,79.2,73.9,70.5,96,89,73,29.92,29.75,8,2,10,0.00
2013-6-8,89.2,75.9,69.5,79.5,72.7,67.6,96,90,70,30.08,29.92,8,1,9,1.51
2013-6-9,89.4,77.9,70.1,80.7,74.5,68.9,96,90,67,30.08,29.99,9,2,13,0.33
2013-6-10,90.0,79.1,70.6,79.4,74.5,69.1,96,87,66,30.07,29.97,6,1,11,0.03
2013-6-11,89.3,77.2,70.9,81.4,74.0,69.1,95,90,70,30.06,29.96,5,1,9,0.05
2013-6-12,94.2,79.3,67.0,80.8,73.3,65.5,96,83,58,30.06,29.96,7,0,8,0.05
2013-6-13,92.9,80.5,69.7,81.1,74.6,67.9,95,83,63,30.01,29.87,12,1,14,0.00
2013-6-14,91.2,80.2,70.2,79.3,73.6,68.2,95,81,63,29.92,29.83,4,1,12,0.00
2013-6-15,88.6,79.0,71.9,81.9,75.3,69.6,94,89,76,30.04,29.88,8,1,9,0.00
2013-6-16,92.4,82.1,75.2,79.1,76.0,73.4,95,83,59,30.06,29.97,6,2,15,0.96
2013-6-17,91.3,81.0,71.3,81.8,76.8,69.5,96,88,69,30.07,29.94,10,1,12,0.97
2013-6-18,93.1,80.8,71.6,80.6,75.3,70.0,95,84,63,30.05,29.92,7,1,9,0.03
2013-6-19,92.5,81.0,71.3,80.5,75.2,69.5,95,83,64,30.02,29.93,8,1,14,0.00
2013-6-20,93.6,79.1,70.6,81.6,73.7,68.8,95,85,59,30.07,29.96,10,1,17,0.04
2013-6-21,90.5,75.3,67.2,79.4,71.9,65.6,96,90,66,30.11,30.01,5,0,14,2.78
2013-6-22,90.1,78.3,68.8,79.4,72.4,67.3,96,84,48,30.09,30.01,4,1,7,0.01
2013-6-23,90.2,78.2,68.9,78.3,73.9,67.1,95,87,63,30.12,30.03,10,1,15,0.00
2013-6-24,90.9,81.0,74.0,78.0,74.9,72.5,96,83,59,30.16,30.04,6,2,10,0.00
2013-6-25,91.4,81.8,70.6,78.0,74.2,68.8,95,79,57,30.13,30.00,5,1,9,0.00
2013-6-26,91.5,79.1,71.6,81.9,75.1,70.1,95,88,67,30.05,29.97,11,1,15,0.85
2013-6-27,91.2,79.4,68.3,80.5,74.3,67.1,96,85,61,30.03,29.90,5,1,9,0.01
2013-6-28,90.8,78.4,72.7,80.6,74.4,69.5,94,88,67,29.95,29.83,7,1,11,0.11
2013-6-29,87.2,78.3,74.4,80.8,75.6,71.9,95,92,76,29.85,29.78,7,2,10,0.16
2013-6-30,87.4,77.1,73.6,81.6,74.7,72.1,95,93,80,29.86,29.79,8,3,13,0.21
2013-7-1,80.4,74.6,72.3,77.5,73.0,70.9,96,94,90,30.00,29.83,13,5,15,1.09
2013-7-2,80.4,75.2,72.6,77.2,73.6,71.3,96,95,89,30.07,29.95,7,1,10,0.16
2013-7-3,88.2,76.7,72.4,80.9,74.4,71.0,96,93,76,30.10,30.02,16,2,16,0.50
2013-7-4,86.2,77.1,71.9,79.6,74.2,70.2,96,91,78,30.13,30.04,9,2,13,0.10
2013-7-5,87.8,77.6,71.7,78.5,72.6,69.7,95,85,73,30.13,30.03,9,2,13,0.84
2013-7-6,89.5,80.5,73.8,78.0,73.3,69.3,86,79,63,30.09,30.00,8,2,16,0.04
2013-7-7,89.2,81.0,74.1,77.8,73.7,69.3,85,79,67,30.10,30.01,7,2,13,0.02
2013-7-8,90.6,81.6,73.4,77.9,73.4,68.6,86,77,59,30.13,30.04,5,1,11,0.00
2013-7-9,90.8,80.4,70.7,77.1,72.1,65.6,85,77,53,30.13,30.03,6,2,11,0.00
2013-7-10,89.0,79.4,69.7,77.2,71.8,65.0,85,78,64,30.06,29.94,7,1,13,0.00
2013-7-11,90.6,79.4,71.2,77.9,72.4,66.1,85,79,64,30.01,29.89,8,2,17,0.23
2013-7-12,87.3,78.1,71.0,78.9,72.0,66.0,85,82,76,29.93,29.86,3,0,5,0.01
2013-7-13,88.9,76.6,69.6,77.6,70.6,64.9,85,82,69,29.97,29.88,4,1,7,0.04
2013-7-14,87.9,76.0,72.1,79.0,70.5,67.3,85,83,73,30.06,29.94,10,2,16,0.65
2013-7-15,87.8,77.1,69.5,76.8,71.0,64.8,85,82,68,30.09,30.00,7,1,10,0.00
2013-7-16,88.0,76.9,73.1,77.0,70.9,68.3,85,82,67,30.14,30.06,10,2,13,0.52
2013-7-17,87.7,77.9,73.0,77.6,71.9,67.9,85,82,71,30.13,30.04,10,2,11,0.37
2013-7-18,84.7,76.1,71.5,76.3,70.1,66.8,85,82,75,30.10,30.01,7,1,9,0.43
2013-7-19,87.7,76.6,71.2,78.2,70.2,65.8,83,81,73,30.10,30.00,8,2,10,0.95
2013-7-20,89.2,77.0,71.6,80.2,70.7,66.2,83,81,74,30.08,29.99,10,1,14,0.10
2013-7-21,91.1,78.0,71.2,81.8,71.6,65.8,83,81,73,30.11,29.99,6,1,11,0.52
2013-7-22,91.0,78.3,73.2,81.1,71.8,67.4,82,81,71,30.10,30.03,8,1,14,0.22
2013-7-23,86.4,77.7,72.1,78.7,71.4,66.6,83,81,77,30.07,29.93,7,1,11,0.16
2013-7-24,87.3,79.5,74.1,80.0,73.1,68.3,82,81,78,29.97,29.85,6,1,12,0.33
2013-7-25,85.4,78.8,75.4,78.9,72.5,69.2,82,81,80,29.97,29.84,5,0,8,0.57
2013-7-26,91.3,80.9,73.9,81.8,73.8,67.9,82,79,68,29.98,29.91,5,0,7,0.01
2013-7-27,92.4,81.4,72.5,82.5,74.4,66.7,83,79,68,29.97,29.86,5,0,6,0.00
2013-7-28,91.3,78.8,69.9,81.3,71.9,64.5,83,80,65,30.04,29.91,11,1,13,0.08
2013-7-29,94.3,80.7,70.5,80.3,72.9,65.1,83,78,61,30.13,29.99,10,1,13,0.00
2013-7-30,91.7,81.6,71.9,80.4,73.8,66.5,83,78,62,30.14,30.04,7,1,10,0.00
2013-7-31,93.8,81.2,72.1,81.1,73.8,66.6,84,79,61,30.11,29.98,6,1,11,0.08
2013-8-1,88.6,77.2,71.3,79.9,71.2,66.2,84,82,71,30.04,29.95,5,1,6,0.01
2013-8-10,92.7,87.6,79.6,79.6,76.2,73.6,82,70,59,30.09,30.00,6,1,9,0.01
2013-8-11,93.5,82.4,70.3,80.7,73.9,64.9,83,76,58,30.12,30.02,5,1,7,0.00
2013-8-12,78.2,75.9,74.1,72.3,70.4,68.6,83,83,82,30.10,30.07,0,0,0,0.00
2013-8-24,75.1,74.1,73.6,69.2,68.3,67.8,82,82,82,30.08,30.06,0,0,0,0.01
2013-8-25,79.3,75.1,73.1,73.3,69.0,67.3,82,81,80,30.13,30.05,4,0,6,0.00
2013-8-26,75.3,74.5,73.7,69.4,68.6,67.9,82,82,82,30.04,30.03,0,0,0,0.43
2013-8-27,88.6,79.1,70.8,77.0,70.7,65.0,83,76,60,30.04,29.95,6,2,11,0.01
2013-8-28,90.2,78.5,67.6,74.9,69.3,62.3,84,74,52,30.03,29.94,9,1,12,0.00
2013-8-29,92.3,80.9,70.1,79.8,72.1,64.7,83,75,58,30.01,29.89,2,0,5,0.00
2013-8-30,93.8,80.0,71.1,80.5,72.5,65.7,83,78,60,29.96,29.86,8,0,14,0.79
2013-8-31,93.3,80.7,71.4,82.0,73.4,65.8,83,79,66,29.95,29.86,4,1,7,0.00
2013-9-1,94.7,79.6,71.2,81.6,72.5,65.8,83,79,61,29.97,29.87,7,1,10,0.24
2013-9-2,91.8,78.6,70.2,82.0,72.2,64.8,83,81,69,29.99,29.91,5,1,10,0.07
2013-9-3,90.8,79.6,70.0,81.4,73.2,64.6,83,81,72,29.99,29.90,7,1,15,0.01
2013-9-4,91.3,78.0,70.9,80.8,71.5,65.5,83,81,64,30.07,29.94,15,1,20,0.47
2013-9-5,92.0,79.5,71.9,81.0,72.5,66.1,83,79,64,30.07,29.96,6,1,10,0.03
2013-9-6,93.3,77.9,71.5,81.4,71.0,65.9,84,80,61,30.03,29.90,13,0,23,1.00
2013-9-7,88.4,76.0,69.8,80.3,69.6,63.7,83,81,75,30.00,29.89,8,1,13,0.16
2013-9-8,90.4,78.2,69.5,78.7,70.9,63.8,83,79,63,29.95,29.83,8,1,11,0.00
2013-9-9,89.6,79.2,70.0,77.3,70.8,64.6,83,76,53,30.01,29.90,6,2,10,0.00
2013-9-10,89.3,80.3,72.7,75.8,71.7,67.2,83,76,55,30.06,29.97,9,2,12,0.00
2013-9-11,90.8,80.5,71.9,76.7,71.3,66.5,83,74,55,30.05,29.96,6,1,10,0.00
2013-9-12,89.1,76.7,70.1,79.0,70.5,64.7,83,81,69,30.00,29.88,7,0,9,0.20
2013-9-13,92.4,79.0,70.2,80.0,72.0,64.8,83,79,64,29.89,29.76,2,0,4,0.01
2013-9-14,95.0,81.2,70.4,80.4,73.0,65.0,84,77,57,29.95,29.80,6,1,6,0.00
2013-9-15,89.9,77.0,71.7,79.7,70.9,66.3,84,82,70,30.05,29.94,11,1,11,0.04
2013-9-16,90.6,77.0,69.2,79.1,70.4,63.8,84,80,64,30.05,29.96,15,2,19,0.22
2013-9-17,87.7,77.4,70.1,78.9,71.1,64.7,84,81,70,30.03,29.92,9,2,12,0.18
2013-9-18,84.3,77.2,71.5,77.2,71.5,66.1,84,83,78,30.02,29.93,9,2,15,0.67
2013-9-19,88.5,78.6,71.4,77.9,71.4,66.0,84,79,61,30.02,29.93,7,2,10,0.01
2013-9-20,88.2,77.4,67.6,73.8,68.7,62.6,84,75,58,30.00,29.87,6,1,10,0.00
2013-9-21,89.7,76.8,65.4,77.1,69.1,60.4,84,78,61,29.93,29.74,4,1,6,0.00
2013-9-22,89.6,77.6,72.5,79.8,71.7,67.4,84,82,71,29.83,29.73,7,1,11,0.16
2013-9-23,85.3,75.8,72.6,78.8,70.1,67.1,84,83,80,29.94,29.81,7,1,10,2.41
2013-9-24,82.3,76.4,73.8,76.3,70.5,68.0,83,82,81,29.94,29.82,7,2,11,0.06
2013-9-25,80.2,74.9,72.0,74.2,69.2,66.2,83,82,82,29.85,29.76,5,1,7,0.15
2013-9-26,90.4,79.8,73.0,81.6,72.1,66.9,83,78,54,29.85,29.75,6,1,7,0.00
2013-9-27,81.7,74.8,68.3,74.7,68.8,63.3,84,82,75,29.93,29.82,10,2,14,0.00
2013-9-28,83.7,75.7,69.9,76.0,69.7,64.5,83,82,75,29.97,29.89,9,2,10,0.01
2013-9-29,88.2,76.3,67.2,74.6,68.3,62.2,84,77,59,29.97,29.86,8,1,10,0.00
2013-9-30,90.2,76.8,65.6,76.5,68.8,60.6,84,77,56,29.99,29.88,8,1,9,0.00
2013-10-1,88.9,77.6,67.4,76.1,70.2,62.1,84,78,60,30.03,29.94,8,2,11,0.00
2013-10-2,87.6,77.5,68.5,75.3,69.7,63.1,84,77,63,30.03,29.95,7,2,11,0.00
2013-10-3,88.6,77.8,66.5,74.7,69.5,61.5,84,76,60,30.05,29.95,5,1,8,0.00
2013-10-4,88.7,77.7,66.0,76.5,69.8,61.0,85,77,60,30.06,29.96,5,1,8,0.00
2013-10-5,88.8,77.0,64.9,76.2,69.2,59.9,84,77,62,30.04,29.92,7,2,10,0.00
2013-10-6,90.9,77.8,66.6,77.5,70.0,61.6,84,78,58,29.96,29.82,5,1,11,0.00
2013-10-7,85.1,76.5,69.8,78.3,70.8,64.4,85,83,79,29.85,29.71,9,2,12,0.31
2013-10-8,87.5,78.4,73.7,79.4,72.2,68.2,83,81,74,29.92,29.75,5,1,11,0.17
2013-10-9,81.8,73.6,66.6,74.1,67.8,61.6,84,82,74,30.01,29.90,6,2,11,0.00
2013-10-10,85.4,73.0,62.2,72.7,65.4,57.3,84,78,60,30.03,29.93,7,1,10,0.00
2013-10-11,88.6,72.3,58.9,71.3,63.5,54.1,85,75,54,30.02,29.91,3,0,6,0.00
2013-10-12,87.5,72.1,59.3,72.9,62.7,54.7,85,74,48,30.02,29.94,4,0,9,0.00
2013-10-13,85.8,70.6,58.2,70.8,61.2,53.4,85,74,49,30.06,29.96,4,1,8,0.00
2013-10-14,85.8,72.3,60.7,72.3,64.0,55.8,84,76,53,30.02,29.90,7,2,10,0.00
2013-10-15,81.1,70.6,63.2,74.0,65.0,58.3,84,83,77,29.98,29.87,4,0,5,0.00
2013-10-16,88.7,75.5,66.3,74.9,67.8,61.2,84,77,56,29.95,29.86,4,0,5,0.01
2013-10-17,90.3,75.5,62.6,77.1,68.0,57.6,84,78,59,29.96,29.86,2,0,4,0.00
2013-10-18,89.4,77.0,63.9,76.8,68.8,59.0,84,77,57,29.97,29.86,4,1,8,0.00
2013-10-19,89.5,77.9,66.9,75.9,70.0,61.8,84,77,61,29.93,29.83,7,1,10,0.00
2013-10-20,89.9,78.7,71.0,79.1,71.8,65.6,83,80,66,29.94,29.83,5,1,9,0.00
2013-10-21,91.1,78.3,68.5,78.8,70.9,63.1,84,78,63,29.97,29.87,5,1,7,0.00
2013-10-22,89.8,78.1,70.4,78.7,71.2,65.0,83,79,67,29.91,29.78,6,1,10,0.01
2013-10-23,83.9,73.0,63.0,69.7,64.3,56.9,83,75,48,29.99,29.78,5,0,10,0.00
2013-10-24,71.8,63.4,56.1,59.9,55.2,50.6,85,75,62,30.14,29.98,7,2,11,0.00
2013-10-25,82.1,65.1,53.0,63.3,54.1,48.6,85,70,41,30.22,30.11,8,1,13,0.00
2013-10-26,80.7,62.4,49.7,62.0,52.4,45.4,85,73,41,30.19,30.06,6,1,9,0.01
2013-10-27,79.7,62.4,46.8,62.2,52.2,42.5,85,72,43,30.12,30.03,6,1,10,0.00
2013-10-28,84.2,65.3,48.0,66.8,56.1,43.7,85,74,51,30.17,30.08,5,1,10,0.00
2013-10-29,84.5,69.0,56.6,68.8,60.8,51.8,85,76,57,30.20,30.10,9,2,13,0.01
2013-10-30,83.7,71.7,61.4,71.8,63.9,56.5,84,77,58,30.20,30.08,8,2,12,0.00
2013-10-31,85.5,71.7,57.4,70.7,63.3,52.6,85,76,57,30.11,29.95,8,2,12,0.00
2013-11-1,88.1,74.5,63.0,74.7,66.7,58.1,84,77,56,29.99,29.83,10,2,15,0.00
2013-11-2,74.5,69.3,60.6,68.6,64.0,55.7,84,83,82,29.95,29.79,4,0,6,0.00
2013-11-3,76.4,63.6,53.7,61.4,52.8,47.2,85,70,37,30.09,29.94,8,2,14,0.13
2013-11-4,78.9,66.9,54.5,64.0,58.3,49.5,84,75,56,30.13,30.07,11,4,16,0.00
2013-12-31,67.2,63.3,59.7,54.6,53.0,50.7,83,70,58,30.27,30.19,7,4,9,26.75
2014-1-1,64.3,60.8,57.2,59.4,56.0,52.7,85,84,81,30.23,30.05,6,3,9,24.14
2014-1-2,80.0,68.6,59.6,73.2,63.2,54.8,84,83,76,30.05,29.79,9,2,14,0.36